JM1YTT-13 Weather Reports


time (UTC)temp
C
wind
direction
speed
KPH
gust
KPH
rain 1hr
cm
rain 24hr
cm
rain mn
cm
humidity
%
barometer
mb
20260509041310 22 345 6.4 9.7 0.00 0.00 0.00 32 1009.9
20260509034310 23 351 1.6 19.3 0.00 0.00 0.00 35 1009.8
20260509031310 22 9 3.2 27.4 0.00 0.00 0.00 35 1009.7
20260509024310 21 336 1.6 3.2 0.00 0.00 0.00 38 1009.5
20260509021310 21 337 6.4 9.7 0.00 0.00 0.00 37 1009.2
20260509014310 21 335 4.8 30.6 0.00 0.00 0.00 41 1009.3
20260509011310 20 341 0.0 3.2 0.00 0.00 0.00 39 1009.2
20260509004310 21 2 1.6 6.4 0.00 0.00 0.00 37 1008.7
20260509001310 21 347 0.0 6.4 0.00 0.00 0.00 37 1008.0
20260508234310 21 338 1.6 6.4 0.00 0.00 0.00 38 1008.0
20260508231310 20 5 0.0 0.0 0.00 0.00 0.00 53 1007.5
20260508224310 19 158 0.0 3.2 0.00 0.00 0.00 62 1007.1
20260508221310 17 163 0.0 0.0 0.00 0.00 0.00 82 1006.8
20260508214310 15 178 0.0 0.0 0.00 0.00 0.00 85 1006.2
20260508211310 14 315 0.0 0.0 0.00 0.00 0.00 68 1004.1
20260508204310 14 315 0.0 0.0 0.00 0.00 0.00 68 1004.1
20260508201310 14 315 0.0 0.0 0.00 0.00 0.00 68 1004.1
20260508194310 14 315 0.0 0.0 0.00 0.00 0.00 68 1004.1
20260508191310 14 296 0.0 0.0 0.00 0.00 0.00 88 1003.9
20260508184310 15 296 0.0 0.0 0.00 0.00 0.00 86 1003.6
20260508181310 16 296 0.0 0.0 0.00 0.00 0.00 86 1003.4
20260508174310 16 295 0.0 0.0 0.00 0.00 0.00 85 1003.0
20260508171310 16 189 0.0 3.2 0.00 0.00 0.00 84 1002.4
20260508164310 17 5 0.0 0.0 0.00 0.00 0.00 79 1002.2
20260508161310 19 348 0.0 0.0 0.00 0.00 0.00 79 1001.5
20260508154310 19 242 0.0 6.4 0.00 0.00 0.00 78 1001.3
20260508151310 19 261 1.6 9.7 0.00 0.00 0.00 79 1000.9
20260508144310 20 335 3.2 19.3 0.00 0.00 0.00 76 1001.0
20260508141310 20 172 1.6 12.9 0.00 0.00 0.00 73 1000.5
20260508134310 21 261 4.8 25.7 0.00 0.00 0.00 70 1000.2
20260508131310 21 263 3.2 16.1 0.00 0.00 0.00 68 1000.0
20260508124310 21 304 3.2 16.1 0.00 0.00 0.00 70 999.8
20260508121310 21 254 4.8 9.7 0.00 0.00 0.00 72 999.6
20260508114310 21 221 8.0 25.7 0.00 0.00 0.00 76 999.4
20260508111310 21 58 9.7 22.5 0.00 0.00 0.00 79 999.1
20260508104310 21 237 11.3 25.7 0.00 0.00 0.00 80 999.4
20260508101310 21 177 14.5 30.6 0.00 0.00 0.00 79 999.6
20260508094310 22 312 4.8 9.7 0.00 0.00 0.00 76 999.6
20260508091310 22 244 11.3 25.7 0.00 0.00 0.00 74 999.6
20260508084310 22 224 11.3 33.8 0.00 0.00 0.00 71 999.9
20260508081310 23 272 8.0 22.5 0.00 0.00 0.00 68 1000.2
20260508074310 24 322 6.4 22.5 0.00 0.00 0.00 69 1000.1
20260508071310 25 250 6.4 16.1 0.00 0.00 0.00 67 1000.2
20260508064310 26 312 3.2 12.9 0.00 0.00 0.00 67 1000.7
20260508061310 25 239 4.8 16.1 0.00 0.00 0.00 69 1000.7
20260508054310 25 296 3.2 16.1 0.00 0.00 0.00 68 1001.5
20260508051310 26 338 3.2 9.7 0.00 0.00 0.00 69 1001.6
20260508044310 25 251 9.7 22.5 0.00 0.00 0.00 70 1002.4